SCP
0 0 0 0 0 0 0 0 0 0 0 0 0 0 0 0 0 0 0 0 0 0 0 0 0 0 0 0 0 0 0 0 0 0 0 0 0 0 0 0 0 0 0
0 0 0 0 0 0 0 0 0 0 0 0 0 0 0 0 0 0 0 0 0 0 0 0 0 0 0 0 0 0 0 0 0 0 0 0 0 0 0 0 0 0 0
0 0 0 0 0 0 0 0 0 0 0 0 0 0 0 0 0 0 0 0 0 0 0 0 0 0 0 0 0 0 0 0 0 0 0 0 0 0 0 0 0 0 0
0 0 0 0 0 0 0 0 0 0 0 0 0 0 0 0 0 0 0 0 0 0 0 0 0 0 0 0 0 0 0 0 0 0 0 0 0 0 0 0 0 0 0
0 0 0 0 0 0 0 0 0 0 0 0 0 0 0 0 0 0 0 0 0 0 0 0 0 0 0 0 0 0 0 0 0 0 0 0 0 0 0 0 0 0 0
0 0 0 0 0 0 0 0 0 0 0 0 0 0 0 0 0 0 0 0 0 0 0 0 0 0 0 0 0 0 0 0 0 0 0 0 0 0 0 0 0 0 0
0 0 0 0 0 0 0 0 0 0 0 0 0 0 0 0 0 0 0 0 0 0 0 0 0 0 0 0 0 0 0 0 0 0 0 0 0 0 0 0 0 0 0
0 0 0 0 0 0 0 0 0 0 0 0 0 0 0 0 0 0 0 0 0 0 0 0 0 0 0 0 0 0 0 0 0 0 0 0 0 0 0 0 0 0 0
0 0 0 0 0 0 0 0 0 0 0 0 0 0 0 0 0 0 0 0 0 0 0 0 0 0 0 0 0 0 0 0 0 0 0 0 0 0 0 0 0 0 0
0 0 0 0 0 0 0 0 0 0 0 0 0 0 0 0 0 0 0 0 0 0 0 0 0 0 0 0 0 0 0 0 0 0 0 0 0 0 0 0 0 0 0
0 0 0 0 0 0 0 0 0 0 0 0 0 0 0 0 0 0 0 0 0 0 0 0 0 0 0 0 0 0 0 0 0 0 0 0 0 0 0 0 0 0 0
0 0 0 0 0 0 0 0 0 0 0 0 0 0 0 0 0 0 0 0 0 0 0 0 0 0 0 0 0 0 0 0 0 0 0 0 0 0 0 0 0 0 0
0 0 0 0 0 0 0 0 0 0 0 0 0 0 0 0 0 0 0 0 0 0 0 0 0 0 0 0 0 0 0 0 0 0 0 0 0 0 0 0 0 0 0
0 0 0 0 0 0 0 0 0 0 0 0 0 0 0 0 0 0 0 0 0 0 0 0 0 0 0 0 0 0 0 0 0 0 0 0 0 0 0 0 0 0 0
0 0 0 0 0 0 0 0 0 0 0 0 0 0 0 0 0 0 0 0 0 0 0 0 0 0 0 0 0 0 0 0 0 0 0 0 0 0 0 0 0 0 0
0 0 0 0 0 0 0 0 0 0 0 0 0 0 0 0 0 0 0 0 0 0 0 0 0 0 0 0 0 0 0 0 0 0 0 0 0 0 0 0 0 0 0
0 0 0 0 0 0 0 0 0 0 0 0 0 0 0 0 0 0 0 0 0 0 0 0 0 0 0 0 0 0 0 0 0 0 0 0 0 0 0 0 0 0 0
0 0 0 0 0 0 0 0 0 0 1 1 1 0 0 0 0 0 0 0 0 0 0 0 0 0 0 0 0 0 0 0 0 0 0 0 0 0 0 0 0 0 0
1 1 1 1 1 0 0 0 0 0 1 1 1 0 0 0 0 0 0 0 0 0 0 0 0 0 0 0 0 0 0 0 0 0 0 0 0 0 0 0 0 0 0
1 1 1 1 1 0 0 0 0 0 0 1 1 0 0 0 0 0 0 0 0 0 0 0 0 0 0 0 0 0 0 0 0 0 0 0 0 0 0 0 0 0 0
1 1 1 1 1 0 0 0 0 0 0 0 0 0 0 0 0 0 0 0 0 0 0 0 0 0 0 0 0 0 0 0 0 0 0 0 0 0 0 0 0 0 0
1 1 1 1 1 0 0 0 0 0 0 0 0 0 0 0 0 0 0 0 0 0 0 0 0 0 0 0 0 0 0 0 0 0 0 0 0 0 0 0 0 0 0
1 1 1 1 1 1 0 0 0 0 0 0 0 0 0 0 0 0 0 0 0 0 0 0 0 0 0 0 0 0 0 0 0 0 0 0 0 0 0 0 0 0 0
1 1 1 1 1 1 0 0 0 0 0 0 0 0 0 0 0 0 0 0 0 0 0 0 0 0 0 0 0 0 0 0 0 0 0 0 0 0 0 0 0 0 0
1 1 1 1 1 1 0 0 0 0 0 0 0 0 0 0 0 0 0 0 0 0 0 0 0 0 0 0 0 0 0 0 0 0 0 0 0 0 0 0 0 0 0
1 1 1 1 1 1 0 0 0 0 0 0 0 0 0 0 0 0 0 0 0 0 0 0 0 0 0 0 0 0 0 0 0 0 0 0 0 0 0 0 0 0 0
Wind_Speed
1 1 1 1 1 1 1 1 1 2 2 2 2 2 2 3 3 2 2 5 5 5 6 7 8 9 9 9 9 10 10 10 9 8 8 9 9 9 9 8 8 7 7
2 2 1 1 1 1 1 1 1 1 1 1 1 2 2 2 2 2 2 2 4 5 5 6 8 8 8 8 9 10 11 10 9 8 9 9 9 9 9 9 8 8 8
3 2 2 1 1 1 2 2 2 2 1 1 1 1 1 2 2 2 2 1 1 3 4 5 5 6 6 7 7 9 10 11 10 10 9 9 9 9 9 9 8 8 8
3 3 2 1 1 2 2 2 2 2 1 1 1 0 1 1 1 2 2 1 1 1 3 4 5 5 7 8 8 8 9 10 10 10 10 10 10 9 9 9 9 9 9
3 3 2 1 2 2 2 2 2 2 2 1 1 1 1 0 0 1 1 2 2 2 1 3 4 4 5 6 6 8 8 9 9 9 10 10 10 9 9 9 9 9 8
3 3 2 2 2 2 2 2 2 2 2 2 1 2 1 1 0 0 1 1 1 2 2 2 2 3 4 4 4 5 6 8 8 8 9 9 9 10 9 9 9 9 8
3 3 2 2 2 2 2 2 2 2 2 2 2 2 2 1 0 0 0 0 1 2 2 2 1 1 2 3 3 4 5 6 7 7 8 8 9 8 8 9 9 9 9
3 3 3 3 2 2 2 2 3 2 1 1 2 1 1 1 1 1 0 1 1 1 1 2 1 2 2 1 2 3 3 4 5 6 7 7 7 6 6 7 8 9 9
3 3 3 3 3 3 3 3 3 3 2 1 1 2 2 2 1 1 1 0 1 0 1 1 2 2 2 1 1 2 2 3 3 4 3 4 5 5 5 6 7 9 9
3 3 3 3 3 3 3 3 3 3 3 2 1 1 1 2 2 1 1 1 1 1 1 1 1 1 1 1 1 1 2 3 2 2 2 2 3 4 5 5 6 8 9
2 2 3 3 3 3 3 3 3 3 3 3 2 2 1 1 1 2 1 1 1 1 1 1 1 1 1 1 1 1 1 2 2 1 1 1 2 3 4 5 5 7 8
1 2 3 3 3 3 3 3 3 4 3 3 2 2 2 2 2 2 2 1 1 1 1 1 1 1 1 1 2 2 1 1 1 1 0 0 1 3 4 4 4 5 6
2 3 3 3 3 3 3 3 3 3 4 4 4 3 3 2 2 2 2 1 1 1 1 1 1 1 1 1 1 2 1 1 0 0 1 1 1 1 2 3 4 4 4
3 3 3 3 4 4 4 4 3 3 3 3 4 3 2 3 3 3 3 3 1 1 1 2 1 1 1 1 1 1 0 1 1 1 1 1 1 1 0 2 3 3 3
2 3 3 3 3 4 4 4 3 3 3 3 3 3 3 3 3 3 3 3 3 2 2 2 1 1 1 1 1 1 1 1 1 1 1 1 2 2 2 2 3 3 3
2 2 3 3 3 3 3 3 2 2 3 2 2 3 3 2 2 3 3 3 3 3 3 2 2 1 1 1 1 1 1 1 1 1 1 2 2 2 3 3 4 4 4
2 2 3 3 2 3 3 3 3 3 3 3 3 3 3 3 2 3 3 3 3 3 3 2 1 1 2 2 1 1 1 1 1 2 2 2 2 3 3 3 3 4 4
3 3 2 2 3 3 3 4 4 4 4 4 3 3 4 3 3 3 3 3 3 4 3 3 1 1 2 2 1 1 1 1 1 2 3 3 3 3 3 3 4 4 4
3 2 2 3 2 2 2 3 3 3 4 4 3 4 4 3 3 2 3 3 3 3 2 3 2 1 1 1 1 1 1 1 1 2 2 3 3 4 4 4 4 4 4
4 3 3 3 2 2 2 3 3 3 3 3 3 3 3 3 3 3 3 3 3 3 2 2 2 1 1 2 2 2 2 2 2 1 1 2 3 4 4 5 5 5 5
4 4 3 3 2 2 3 3 3 3 3 3 2 3 3 3 3 3 3 3 3 3 3 3 2 2 2 3 3 3 2 2 2 2 2 2 2 3 3 5 6 6 7
3 3 3 3 3 2 2 4 3 3 3 3 3 2 2 2 2 2 3 4 5 5 4 3 3 3 4 4 3 3 3 2 2 2 2 2 3 3 3 4 6 8 8
3 3 3 3 3 3 3 3 4 2 2 3 3 2 2 2 2 2 1 2 3 4 6 5 4 5 4 5 5 5 4 4 3 2 3 3 3 4 4 4 7 9 9
4 4 4 4 3 2 3 4 4 3 2 3 3 3 3 3 2 2 2 1 2 3 4 4 5 5 4 4 5 5 4 3 2 2 3 3 3 3 3 4 7 10 10
3 3 3 3 3 2 3 4 4 2 2 3 3 3 3 3 3 3 2 2 3 3 3 4 4 4 4 4 4 3 3 3 3 3 4 3 2 2 3 4 5 9 10
3 3 3 2 3 3 2 3 4 2 2 2 2 2 3 4 3 4 4 3 4 4 3 2 2 3 3 4 6 6 5 5 3 3 4 4 3 2 2 2 3 4 6
Wind_Direction
145 118 111 96 94 116 120 118 105 101 110 121 139 152 167 174 181 189 202 206 206 209 208 204 205 209 210 212 213 215 214 213 211 210 210 211 211 210 209 210 207 207 205
155 143 138 129 143 147 138 134 131 127 135 134 145 161 175 176 188 193 198 214 220 221 225 216 211 215 217 220 223 224 221 220 217 218 216 215 216 217 218 216 214 212 209
163 157 149 156 158 139 127 116 107 106 131 129 136 145 154 169 181 188 189 197 228 234 235 226 220 221 224 230 234 231 224 220 218 218 219 220 220 218 220 222 222 219 213
164 155 158 171 154 132 128 128 118 113 123 132 142 149 131 157 188 187 190 199 222 248 255 246 237 235 236 239 239 239 229 222 221 221 221 224 223 220 222 223 221 217 211
164 156 161 161 147 137 136 148 125 133 140 142 138 95 70 119 211 200 189 206 218 231 250 267 254 250 251 250 247 243 236 224 223 225 225 225 225 222 220 221 218 212 205
160 152 154 157 145 140 140 137 130 124 133 130 104 70 37 27 42 3 243 228 235 235 234 247 258 268 265 263 262 256 248 232 226 228 228 225 227 227 223 220 213 207 204
160 156 159 155 155 160 164 150 130 123 110 113 95 58 29 33 55 6 309 271 267 260 242 239 241 248 274 282 286 276 266 253 240 233 229 226 229 227 223 218 210 207 202
174 172 171 173 168 159 152 150 140 132 140 136 128 111 21 348 350 26 1 251 277 282 264 253 244 242 255 271 302 293 286 273 253 243 237 225 222 219 219 217 210 205 199
178 176 174 173 173 170 177 174 163 158 168 169 155 153 160 220 292 330 342 328 311 290 281 283 258 256 251 253 273 302 309 312 279 264 257 224 209 200 203 208 209 201 198
178 179 175 175 178 177 181 188 174 169 161 177 185 190 179 161 168 286 317 323 315 281 284 284 274 262 252 250 268 299 315 319 310 281 279 241 211 198 199 204 216 205 199
185 182 180 179 185 188 189 186 172 173 174 178 180 169 146 134 158 175 250 298 315 286 267 257 261 269 267 253 249 268 314 338 348 321 293 261 229 210 205 209 220 212 204
207 203 191 189 191 191 191 192 185 182 186 183 183 178 172 174 183 181 206 239 261 280 280 268 258 267 265 253 249 244 249 289 335 333 307 280 254 229 203 205 208 204 199
223 219 199 193 195 197 192 182 183 194 193 192 196 198 198 202 175 169 172 200 233 271 285 263 248 251 250 242 253 252 232 189 134 64 71 50 16 286 206 202 195 188 190
223 214 196 199 202 196 188 179 187 199 194 203 211 204 205 211 192 185 179 171 197 263 256 252 260 237 236 224 222 224 215 176 156 115 98 81 65 38 112 187 177 173 168
219 205 195 197 198 190 185 178 192 201 191 203 214 211 210 213 199 200 190 180 178 217 251 239 240 233 218 199 187 168 171 161 182 142 113 105 92 71 76 117 134 136 136
205 187 193 194 193 189 183 178 190 193 190 210 208 207 217 216 202 195 191 190 190 196 228 237 226 220 204 183 153 161 189 184 163 151 149 134 114 103 107 113 125 133 130
185 189 188 180 185 196 190 184 199 191 200 217 214 210 223 214 208 206 195 189 193 186 212 253 229 199 190 191 163 154 171 198 181 163 155 143 129 115 115 121 129 134 134
195 193 181 182 194 200 194 192 204 202 206 219 225 222 231 217 215 211 203 208 204 196 195 217 226 190 207 201 182 190 204 206 204 179 173 167 155 145 141 135 128 131 139
191 186 181 191 199 198 195 200 202 207 211 220 221 222 231 215 222 217 214 213 209 201 197 198 219 191 194 175 161 187 200 225 219 186 182 187 182 173 165 158 146 141 143
184 190 191 195 199 200 200 202 202 211 218 224 221 222 228 219 221 218 218 214 200 189 182 187 207 210 197 174 172 190 211 214 225 205 198 193 191 188 184 180 174 167 161
195 190 181 188 197 197 204 200 205 209 216 222 222 222 228 227 218 212 215 207 193 190 184 190 199 203 200 189 201 191 209 215 226 205 205 206 202 204 202 200 196 190 180
186 181 189 194 201 212 207 195 191 205 212 218 226 228 228 234 228 216 215 201 193 192 196 196 203 212 220 214 200 191 186 193 233 195 197 220 202 217 216 212 204 194 189
191 197 206 204 210 220 201 194 190 194 211 221 224 224 235 232 221 222 224 201 205 210 199 192 203 219 220 210 195 200 202 206 220 181 182 223 210 226 226 220 209 203 198
198 204 215 210 207 214 193 191 191 201 217 222 219 217 224 236 218 198 193 206 225 231 222 207 213 223 223 210 203 208 207 205 211 186 182 223 219 230 233 225 213 207 205
196 201 210 201 201 223 201 193 183 199 219 238 235 225 223 228 225 197 192 222 254 261 241 227 230 235 223 203 188 177 182 194 224 211 189 210 220 230 237 232 218 209 209
193 187 204 203 202 221 215 200 194 193 211 245 247 234 225 223 225 201 212 221 246 258 254 252 252 248 229 205 191 198 200 205 218 224 192 193 196 193 236 225 219 211 212